Texarkana, AR

11:07 PM CDT on March 26, 2017 (GMT -0500)
Texarkana Regional-Webb

Weather History for KTXK - March, 2014

Change the Weather History Date:

Saturday, March 29, 2014

  Actual Average Record
Temperature  
Mean Temperature 60 °F 59 °F  
Max Temperature 72 °F 71 °F 88 °F (1929)
Min Temperature 48 °F 48 °F 25 °F (1931)
Degree Days  
Heating Degree Days 5 7  
Month to date heating degree days 382 288  
Since 1 July heating degree days 2850 2482  
Cooling Degree Days 0 1  
Month to date cooling degree days 7 17  
Year to date cooling degree days 7 21  
Growing Degree Days 10 (Base 50)    
Moisture  
Dew Point 42 °F    
Average Humidity 55    
Maximum Humidity 89    
Minimum Humidity 20    
Precipitation  
Precipitation 0.00 in 0.13 in 5.36 in (1945)
Month to date precipitation 3.26 3.92  
Year to date precipitation 7.18 11.31  
Snow  
Snow 0.00 in - - ()
Month to date snowfall T  
Since 1 July snowfall 1.7  
Snow Depth 0.00 in    
Sea Level Pressure  
Sea Level Pressure 30.15 in    
Wind  
Wind Speed 6 mph (North)    
Max Wind Speed 15 mph    
Max Gust Speed 23 mph    
Visibility 10 miles    
Events      
T = Trace of Precipitation, MM = Missing Value Source: NWS Daily Summary

Daily Weather History Graph

Daily Weather History Graph

Search for Another Location

Airport or City:

Trip Planner

Search our weather history database for the weather conditions in past years. The results will help you decide how hot, cold, wet, or windy it might be!

Date:

Astronomy

Mar. 29, 2014 Rise Set
Actual Time 7:07 AM CDT 7:34 PM CDT
Civil Twilight 6:42 AM CDT 7:59 PM CDT
Nautical Twilight 6:13 AM CDT 8:28 PM CDT
Astronomical Twilight 5:43 AM CDT 8:58 PM CDT
Moon 6:13 AM CDT (3/29) 6:41 PM CDT (3/29)
Length of Visible Light 13h 16m
Length of Day
12h 26m
Waning Crescent, 2% of the Moon is Illuminated
Mar 29
Waning Crescent
Mar 30
New
Apr 7
First Quarter
Apr 15
Full
Apr 22
Last Quarter

Hourly Weather History & Observations

Time (CDT) Temp. Dew Point Humidity Pressure Visibility Wind Dir Wind Speed Gust Speed Precip Events Conditions
12:53 AM 57.9 °F 54.0 °F 87% 29.99 in 10.0 mi NNE 9.2 mph - 0.00 in   Unknown
1:53 AM 57.0 °F 53.1 °F 87% 30.01 in 10.0 mi North 6.9 mph - N/A   Unknown
2:53 AM 55.9 °F 52.0 °F 87% 30.01 in 10.0 mi North 5.8 mph - N/A   Unknown
3:53 AM 54.0 °F 50.0 °F 86% 30.02 in 10.0 mi North 5.8 mph - N/A   Unknown
4:53 AM 53.1 °F 48.9 °F 86% 30.05 in 10.0 mi North 6.9 mph - N/A   Unknown
5:53 AM 52.0 °F 48.0 °F 86% 30.08 in 10.0 mi Calm Calm - N/A   Unknown
6:53 AM 50.0 °F 46.9 °F 89% 30.13 in 10.0 mi NW 4.6 mph - N/A   Unknown
7:53 AM 50.0 °F 46.9 °F 89% 30.14 in 10.0 mi NNW 6.9 mph - N/A   Unknown
8:53 AM 54.0 °F 46.9 °F 77% 30.17 in 10.0 mi NW 6.9 mph - N/A   Unknown
9:53 AM 57.0 °F 46.9 °F 69% 30.19 in 10.0 mi NNW 9.2 mph 18.4 mph N/A   Unknown
10:53 AM 61.0 °F 45.0 °F 56% 30.21 in 10.0 mi NNW 11.5 mph - N/A   Clear
11:53 AM 64.0 °F 43.0 °F 46% 30.22 in 10.0 mi North 8.1 mph 16.1 mph N/A   Clear
12:53 PM 66.9 °F 41.0 °F 39% 30.22 in 10.0 mi NW 5.8 mph - N/A   Clear
1:53 PM 69.1 °F 37.9 °F 32% 30.20 in 10.0 mi North 8.1 mph - N/A   Clear
2:53 PM 71.1 °F 33.1 °F 25% 30.19 in 10.0 mi NNW 10.4 mph 20.7 mph N/A   Clear
3:53 PM 71.1 °F 33.1 °F 25% 30.17 in 10.0 mi NNW 11.5 mph - N/A   Clear
4:53 PM 71.1 °F 33.1 °F 25% 30.16 in 10.0 mi North 8.1 mph - N/A   Clear
5:53 PM 70.0 °F 27.0 °F 20% 30.17 in 10.0 mi North 10.4 mph - N/A   Clear
6:53 PM 68.0 °F 30.0 °F 24% 30.18 in 10.0 mi North 6.9 mph - N/A   Clear
7:53 PM 60.1 °F 35.1 °F 39% 30.19 in 10.0 mi North 3.5 mph - N/A   Clear
8:53 PM 62.1 °F 30.9 °F 31% 30.20 in 10.0 mi North 4.6 mph - N/A   Clear
9:53 PM 52.0 °F 37.9 °F 59% 30.22 in 10.0 mi Calm Calm - N/A   Clear
10:53 PM 48.9 °F 39.9 °F 71% 30.23 in 10.0 mi Calm Calm - N/A   Clear
11:53 PM 53.1 °F 36.0 °F 52% 30.23 in 10.0 mi ENE 3.5 mph - N/A   Clear